• Em Portugal
  • Lista de países
  • Para 7 dias
  • Temperatura da água
  • Mapas de satélite
  • Mapa do tempo
  • Widgets de tempo
  • user-avatar
    Iniciar Sessão

    Previsão horária em Lubango

    Hoje, 18 Fevereiro, Domingo

    Tempo Temperatura Precipitação Vento Pressão Humidade
    00:00 +15°C° 1,3 mm 1 m/s 608 mmHg 93%
    01:00 +15°C° 1,3 mm 1 m/s 608 mmHg 93%
    02:00 +15°C° 0,5 mm 1 m/s 608 mmHg 93%
    03:00 +15°C° 0,5 mm 1 m/s 608 mmHg 93%
    04:00 +14°C° 0,5 mm 0 m/s 607 mmHg 93%
    05:00 +14°C° 0 mm 0 m/s 608 mmHg 92%
    06:00 +14°C° 0 mm 0 m/s 608 mmHg 90%
    07:00 +15°C° 0 mm 0 m/s 608 mmHg 88%
    08:00 +16°C° 0,2 mm 0 m/s 609 mmHg 80%
    09:00 +20°C° 0,2 mm 1 m/s 609 mmHg 72%
    10:00 +22°C° 0,2 mm 1 m/s 610 mmHg 64%
    11:00 +23°C° 0,7 mm 1 m/s 610 mmHg 60%
    12:00 +24°C° 0,7 mm 1 m/s 610 mmHg 56%
    13:00 +25°C° 0,7 mm 1 m/s 610 mmHg 52%
    14:00 +25°C° 1,1 mm 1 m/s 609 mmHg 54%
    15:00 +25°C° 1,1 mm 1 m/s 609 mmHg 56%
    16:00 +24°C° 1,1 mm 2 m/s 608 mmHg 57%
    17:00 +21°C° 1 mm 2 m/s 608 mmHg 65%
    18:00 +20°C° 1 mm 2 m/s 608 mmHg 72%
    19:00 +18°C° 1 mm 2 m/s 607 mmHg 79%
    20:00 +17°C° 1,4 mm 2 m/s 608 mmHg 83%
    21:00 +18°C° 1,4 mm 1 m/s 608 mmHg 86%
    22:00 +16°C° 1,4 mm 1 m/s 608 mmHg 90%
    23:00 +16°C° 0,8 mm 1 m/s 608 mmHg 91%

    Amanhã, 19 Fevereiro, Segunda-feira

    Tempo Temperatura Precipitação Vento Pressão Humidade
    00:00 +16°C° 0,8 mm 1 m/s 608 mmHg 91%
    01:00 +16°C° 0,8 mm 1 m/s 608 mmHg 92%
    02:00 +15°C° 0,3 mm 1 m/s 607 mmHg 92%
    03:00 +14°C° 0,3 mm 0 m/s 607 mmHg 92%
    04:00 +14°C° 0,3 mm 0 m/s 607 mmHg 92%
    05:00 +15°C° 0,3 mm 0 m/s 607 mmHg 89%
    06:00 +15°C° 0,3 mm 0 m/s 608 mmHg 86%
    07:00 +16°C° 0,3 mm 0 m/s 608 mmHg 84%
    08:00 +19°C° 0,3 mm 1 m/s 609 mmHg 75%
    09:00 +21°C° 0,3 mm 1 m/s 610 mmHg 66%
    10:00 +23°C° 0,3 mm 1 m/s 611 mmHg 58%
    11:00 +24°C° 0,1 mm 2 m/s 611 mmHg 53%
    12:00 +25°C° 0,1 mm 2 m/s 610 mmHg 49%
    13:00 +26°C° 0,1 mm 2 m/s 610 mmHg 44%
    14:00 +26°C° 0,2 mm 2 m/s 610 mmHg 48%
    15:00 +25°C° 0,2 mm 2 m/s 609 mmHg 51%
    16:00 +24°C° 0,2 mm 3 m/s 608 mmHg 54%
    17:00 +22°C° 0,7 mm 3 m/s 608 mmHg 63%
    18:00 +20°C° 0,7 mm 2 m/s 608 mmHg 72%
    19:00 +18°C° 0,7 mm 2 m/s 608 mmHg 81%
    20:00 +17°C° 0,6 mm 2 m/s 608 mmHg 84%
    21:00 +18°C° 0,6 mm 1 m/s 608 mmHg 87%
    22:00 +16°C° 0,6 mm 1 m/s 609 mmHg 90%
    23:00 +16°C° 0 mm 1 m/s 608 mmHg 91%

    Depois de amanhã, 20 Fevereiro, Terça-feira

    Tempo Temperatura Precipitação Vento Pressão Humidade
    00:00 +16°C° 0 mm 1 m/s 608 mmHg 92%
    01:00 +15°C° 0 mm 1 m/s 608 mmHg 92%
    02:00 +15°C° 0 mm 1 m/s 607 mmHg 93%
    03:00 +15°C° 0 mm 1 m/s 607 mmHg 93%
    04:00 +15°C° 0 mm 1 m/s 607 mmHg 93%
    05:00 +15°C° 0 mm 1 m/s 607 mmHg 91%
    06:00 +15°C° 0 mm 1 m/s 608 mmHg 89%
    07:00 +14°C° 0 mm 0 m/s 608 mmHg 87%
    08:00 +18°C° 0 mm 1 m/s 609 mmHg 77%
    09:00 +20°C° 0 mm 1 m/s 609 mmHg 68%
    10:00 +21°C° 0 mm 2 m/s 610 mmHg 58%
    11:00 +23°C° 0,1 mm 2 m/s 610 mmHg 55%
    12:00 +24°C° 0,1 mm 2 m/s 610 mmHg 52%
    13:00 +25°C° 0,1 mm 3 m/s 610 mmHg 48%
    14:00 +24°C° 0,6 mm 3 m/s 609 mmHg 53%
    15:00 +24°C° 0,6 mm 3 m/s 608 mmHg 58%
    16:00 +22°C° 0,6 mm 3 m/s 608 mmHg 62%
    17:00 +20°C° 0,6 mm 3 m/s 607 mmHg 68%
    18:00 +19°C° 0,6 mm 2 m/s 607 mmHg 74%
    19:00 +17°C° 0,6 mm 2 m/s 607 mmHg 79%
    20:00 +17°C° 0,3 mm 2 m/s 608 mmHg 82%
    21:00 +16°C° 0,3 mm 2 m/s 608 mmHg 84%
    22:00 +16°C° 0,3 mm 1 m/s 608 mmHg 87%
    23:00 +15°C° 0,5 mm 1 m/s 608 mmHg 88%

    21 Fevereiro, Quarta-feira

    Tempo Temperatura Precipitação Vento Pressão Humidade
    00:00 +15°C° 0,5 mm 1 m/s 608 mmHg 89%
    01:00 +15°C° 0,5 mm 1 m/s 607 mmHg 90%
    02:00 +15°C° 0,2 mm 1 m/s 607 mmHg 90%
    03:00 +15°C° 0,2 mm 1 m/s 607 mmHg 90%
    04:00 +14°C° 0,2 mm 1 m/s 607 mmHg 91%
    05:00 +14°C° 0 mm 1 m/s 607 mmHg 90%
    06:00 +15°C° 0 mm 1 m/s 607 mmHg 89%
    07:00 +15°C° 0 mm 1 m/s 608 mmHg 89%
    08:00 +16°C° 0,2 mm 1 m/s 608 mmHg 83%
    09:00 +18°C° 0,2 mm 1 m/s 609 mmHg 76%
    10:00 +19°C° 0,2 mm 1 m/s 610 mmHg 70%
    11:00 +20°C° 0,1 mm 1 m/s 609 mmHg 67%
    12:00 +21°C° 0,1 mm 1 m/s 609 mmHg 64%
    13:00 +21°C° 0,1 mm 1 m/s 609 mmHg 61%
    14:00 +20°C° 0,2 mm 2 m/s 608 mmHg 63%
    15:00 +20°C° 0,2 mm 2 m/s 608 mmHg 65%
    16:00 +19°C° 0,2 mm 2 m/s 607 mmHg 66%
    17:00 +18°C° 0,3 mm 2 m/s 607 mmHg 71%
    18:00 +17°C° 0,3 mm 2 m/s 607 mmHg 76%
    19:00 +16°C° 0,3 mm 2 m/s 607 mmHg 82%
    20:00 +15°C° 0,2 mm 2 m/s 607 mmHg 83%
    21:00 +15°C° 0,2 mm 2 m/s 608 mmHg 85%
    22:00 +15°C° 0,2 mm 1 m/s 608 mmHg 87%
    23:00 +14°C° 0,2 mm 1 m/s 608 mmHg 88%

    22 Fevereiro, Quinta-feira

    Tempo Temperatura Precipitação Vento Pressão Humidade
    00:00 +14°C° 0,2 mm 1 m/s 607 mmHg 89%
    01:00 +14°C° 0,2 mm 1 m/s 607 mmHg 90%
    02:00 +14°C° 0,1 mm 1 m/s 607 mmHg 90%
    03:00 +14°C° 0,1 mm 1 m/s 606 mmHg 90%
    04:00 +14°C° 0,1 mm 1 m/s 606 mmHg 90%
    05:00 +14°C° 0,1 mm 1 m/s 607 mmHg 89%
    06:00 +14°C° 0,1 mm 1 m/s 607 mmHg 88%
    07:00 +15°C° 0,1 mm 1 m/s 607 mmHg 86%
    08:00 +16°C° 0 mm 1 m/s 608 mmHg 78%
    09:00 +19°C° 0 mm 1 m/s 609 mmHg 69%
    10:00 +21°C° 0 mm 1 m/s 610 mmHg 61%
    11:00 +23°C° 0,3 mm 1 m/s 610 mmHg 55%
    12:00 +24°C° 0,3 mm 1 m/s 609 mmHg 50%
    13:00 +26°C° 0,3 mm 2 m/s 609 mmHg 44%
    14:00 +26°C° 1 mm 2 m/s 609 mmHg 47%
    15:00 +25°C° 1 mm 2 m/s 608 mmHg 49%
    16:00 +25°C° 1 mm 3 m/s 608 mmHg 52%
    17:00 +23°C° 0,6 mm 2 m/s 607 mmHg 59%
    18:00 +20°C° 0,6 mm 2 m/s 607 mmHg 67%
    19:00 +18°C° 0,6 mm 2 m/s 607 mmHg 75%
    20:00 +18°C° 0,5 mm 1 m/s 607 mmHg 79%
    21:00 +18°C° 0,5 mm 1 m/s 607 mmHg 83%
    22:00 +16°C° 0,5 mm 1 m/s 607 mmHg 87%
    23:00 +16°C° 0,3 mm 1 m/s 606 mmHg 88%

    23 Fevereiro, Sexta-feira

    Tempo Temperatura Precipitação Vento Pressão Humidade
    00:00 +15°C° 0,3 mm 1 m/s 606 mmHg 89%
    01:00 +15°C° 0,3 mm 1 m/s 606 mmHg 90%
    02:00 +15°C° 0,5 mm 1 m/s 606 mmHg 91%
    03:00 +14°C° 0,5 mm 1 m/s 605 mmHg 92%
    04:00 +13°C° 0,5 mm 0 m/s 605 mmHg 93%
    05:00 +14°C° 0,4 mm 0 m/s 606 mmHg 91%
    06:00 +14°C° 0,4 mm 0 m/s 606 mmHg 89%
    07:00 +15°C° 0,4 mm 0 m/s 607 mmHg 87%
    08:00 +17°C° 0,4 mm 0 m/s 608 mmHg 76%
    09:00 +19°C° 0,4 mm 0 m/s 609 mmHg 66%
    10:00 +24°C° 0,4 mm 1 m/s 610 mmHg 55%
    11:00 +25°C° 0,7 mm 1 m/s 609 mmHg 52%
    12:00 +26°C° 0,7 mm 1 m/s 609 mmHg 49%
    13:00 +27°C° 0,7 mm 2 m/s 609 mmHg 46%
    14:00 +26°C° 0,7 mm 2 m/s 608 mmHg 49%
    15:00 +25°C° 0,7 mm 3 m/s 608 mmHg 52%
    16:00 +24°C° 0,7 mm 3 m/s 607 mmHg 55%
    17:00 +22°C° 0,7 mm 3 m/s 607 mmHg 62%
    18:00 +20°C° 0,7 mm 2 m/s 607 mmHg 68%
    19:00 +18°C° 0,7 mm 2 m/s 607 mmHg 74%
    20:00 +18°C° 0,5 mm 2 m/s 607 mmHg 77%
    21:00 +17°C° 0,5 mm 2 m/s 607 mmHg 80%
    22:00 +16°C° 0,5 mm 1 m/s 607 mmHg 83%
    23:00 +16°C° 0 mm 1 m/s 607 mmHg 84%
    Mostrar mais